Flag for Colombia Weather past 2 weeks in Cúcuta, Colombia

Now
79 °F

Passing clouds.


Feels Like: 81 °F
Forecast: 71 / 98 °F
Wind: N/A

Location: San Antonio Del Tachira Airport

Current Time: Jul 22, 2014 at 2:54:46 AM

Latest Report: Jul 22, 2014 at 1:00 AM


Visibility: N/A

Pressure: 29.95 "Hg

Humidity: 70%

Dew point: 68 °F

Location of CúcutaLocation

Historic Weather in Cúcuta — Graph

°F

Cúcuta temperature yesterday

Maximum temperature yesterday: 91 °F (at 10:00 AM)
Minimum temperature yesterday: 77 °F (at 6:00 AM)
Average temperature yesterday: 85 °F

Past Weeks' High & Low Weather Summary

 TemperatureHumidityPressure
High91 °F (Jul 14, 4:00 PM)100% (Jul 12, 8:00 AM)30.12 "Hg (Jul 12, 8:00 AM)
Low63 °F (Jul 12, 8:00 AM)41% (Jul 18, 11:00 AM)29.83 "Hg (Jul 11, 5:00 PM)
Average82 °F59%29.95 "Hg
* Reported Jul 7 6:00 AM — Jul 22 1:00 AM, Cúcuta, Weather by CustomWeather, © 2014

Note: Actual official high and low records may vary slightly from our data, if they occured in-between our weather recording intervals... More about our weather records

Advertising

Cúcuta weather history for previous 24 hours

 ConditionsComfort  
Time TempWeatherWind HumidityBarometerVisibility
1:00 AM
Jul 22
79 °FPassing clouds.N/A70%29.95 "HgN/A
10:00 PM
Jul 21
79 °FPassing clouds.N/A65%29.98 "HgN/A
9:00 PM79 °FPassing clouds.N/A65%29.98 "HgN/A
8:00 PM79 °FPassing clouds.N/A65%29.95 "HgN/A
6:00 PM84 °FWarm.N/A55%29.89 "HgN/A
5:00 PM86 °FPartly sunny.N/A52%29.86 "HgN/A
3:00 PM88 °FScattered clouds.N/A49%29.89 "HgN/A
2:00 PM90 °FPassing clouds.N/A49%29.89 "HgN/A
1:00 PM90 °FScattered clouds.N/A49%29.92 "HgN/A
12:00 PM91 °FScattered clouds.N/A44%29.95 "HgN/A
11:00 AM90 °FPassing clouds.N/A46%29.98 "HgN/A
10:00 AM91 °FPassing clouds.N/A46%29.98 "HgN/A
9:00 AM88 °FPassing clouds.N/A49%29.98 "HgN/A
8:00 AM86 °FScattered clouds.N/A46%29.95 "HgN/A
7:00 AM81 °FScattered clouds.N/A54%29.95 "HgN/A
6:00 AM77 °FScattered clouds.N/A57%29.95 "HgN/A
4:00 AM81 °FPassing clouds.N/A51%29.92 "HgN/A
Weather by CustomWeather, © 2014

See weather overviewHow to use our weather pages